| time (UTC) | temp F | wind direction | speed knots | gust knots | rain 1hr in | rain 24hr in | rain mn in | humidity % | barometer mb |
| 20260510130554 | 62 | 106 | 0.0 | 0.0 | 0.00 | 0.01 | 0.00 | 81 | 1014.7 |
| 20260510130037 | 62 | 106 | 0.0 | 0.0 | 0.00 | 0.01 | 0.00 | 82 | 1014.7 |
| 20260510125558 | 62 | 106 | 0.0 | 1.7 | 0.00 | 0.01 | 0.00 | 82 | 1014.7 |
| 20260510125022 | 62 | 106 | 0.0 | 1.7 | 0.00 | 0.01 | 0.00 | 82 | 1014.6 |
| 20260510124610 | 62 | 106 | 0.0 | 0.0 | 0.00 | 0.01 | 0.00 | 82 | 1014.6 |
| 20260510124017 | 62 | 106 | 0.0 | 0.9 | 0.00 | 0.01 | 0.00 | 82 | 1014.4 |
| 20260510123536 | 62 | 106 | 0.0 | 0.9 | 0.00 | 0.01 | 0.00 | 82 | 1014.3 |
| 20260510123016 | 62 | 106 | 0.0 | 0.0 | 0.00 | 0.01 | 0.00 | 83 | 1014.2 |
| 20260510122537 | 61 | 106 | 0.0 | 0.0 | 0.00 | 0.01 | 0.00 | 82 | 1014.0 |
| 20260510122053 | 61 | 106 | 0.0 | 0.9 | 0.00 | 0.01 | 0.00 | 81 | 1013.9 |
| 20260510121539 | 61 | 106 | 0.0 | 1.7 | 0.00 | 0.01 | 0.00 | 81 | 1013.8 |
| 20260510121054 | 61 | 106 | 0.0 | 3.5 | 0.00 | 0.01 | 0.00 | 81 | 1013.7 |
| 20260510120533 | 61 | 106 | 0.9 | 3.5 | 0.00 | 0.01 | 0.00 | 80 | 1013.3 |
| 20260510120051 | 61 | 106 | 0.9 | 2.6 | 0.00 | 0.01 | 0.00 | 80 | 1013.3 |
| 20260510115513 | 61 | 106 | 0.0 | 1.7 | 0.00 | 0.01 | 0.00 | 80 | 1013.2 |
| 20260510115047 | 61 | 106 | 0.0 | 1.7 | 0.00 | 0.01 | 0.00 | 80 | 1013.2 |
| 20260510114516 | 61 | 106 | 0.0 | 1.7 | 0.00 | 0.01 | 0.00 | 80 | 1013.2 |
| 20260510114053 | 61 | 106 | 0.0 | 1.7 | 0.00 | 0.01 | 0.00 | 80 | 1013.2 |
| 20260510113509 | 61 | 106 | 0.0 | 0.0 | 0.00 | 0.01 | 0.00 | 79 | 1013.2 |
| 20260510113030 | 61 | 106 | 0.0 | 0.0 | 0.00 | 0.01 | 0.00 | 79 | 1013.1 |
| 20260510112507 | 61 | 106 | 0.0 | 0.0 | 0.00 | 0.01 | 0.00 | 79 | 1012.9 |
| 20260510112029 | 61 | 106 | 0.0 | 0.9 | 0.00 | 0.01 | 0.00 | 79 | 1012.8 |
| 20260510111503 | 61 | 106 | 0.0 | 3.5 | 0.00 | 0.01 | 0.00 | 79 | 1012.6 |
| 20260510111023 | 61 | 106 | 0.0 | 3.5 | 0.00 | 0.01 | 0.00 | 78 | 1012.6 |
| 20260510110559 | 62 | 107 | 0.0 | 3.5 | 0.00 | 0.01 | 0.00 | 78 | 1012.4 |
| 20260510110504 | 62 | 107 | 0.0 | 3.5 | 0.00 | 0.01 | 0.00 | 78 | 1012.4 |
| 20260510110043 | 62 | 106 | 0.0 | 3.5 | 0.00 | 0.01 | 0.00 | 78 | 1012.2 |
| 20260510105511 | 62 | 107 | 0.0 | 0.0 | 0.00 | 0.01 | 0.00 | 78 | 1011.9 |
| 20260510105033 | 62 | 107 | 0.0 | 0.0 | 0.00 | 0.01 | 0.00 | 77 | 1012.0 |
| 20260510104556 | 62 | 107 | 0.0 | 0.0 | 0.00 | 0.01 | 0.00 | 77 | 1012.2 |
| 20260510104017 | 62 | 107 | 0.0 | 0.0 | 0.00 | 0.01 | 0.00 | 77 | 1012.1 |
| 20260510103548 | 62 | 107 | 0.0 | 0.0 | 0.00 | 0.01 | 0.00 | 76 | 1012.1 |
| 20260510103012 | 62 | 107 | 0.0 | 0.0 | 0.00 | 0.01 | 0.00 | 77 | 1012.1 |
| 20260510102548 | 62 | 107 | 0.0 | 0.0 | 0.00 | 0.01 | 0.00 | 77 | 1012.1 |
| 20260510102012 | 62 | 107 | 0.0 | 0.0 | 0.00 | 0.01 | 0.00 | 78 | 1012.0 |
| 20260510101537 | 62 | 107 | 0.0 | 0.0 | 0.00 | 0.01 | 0.00 | 78 | 1011.9 |
| 20260510101053 | 62 | 107 | 0.0 | 0.9 | 0.00 | 0.01 | 0.00 | 79 | 1011.9 |
| 20260510100533 | 62 | 107 | 0.0 | 0.9 | 0.00 | 0.01 | 0.00 | 79 | 1011.9 |
| 20260510100055 | 63 | 107 | 0.0 | 0.9 | 0.00 | 0.01 | 0.00 | 79 | 1011.9 |
| 20260510095535 | 63 | 107 | 0.0 | 1.7 | 0.00 | 0.01 | 0.00 | 78 | 1012.1 |
| 20260510095056 | 63 | 107 | 0.9 | 3.5 | 0.00 | 0.01 | 0.00 | 78 | 1012.2 |
| 20260510094517 | 63 | 107 | 0.0 | 3.5 | 0.00 | 0.01 | 0.00 | 78 | 1012.3 |
| 20260510094051 | 64 | 107 | 0.0 | 1.7 | 0.00 | 0.01 | 0.00 | 77 | 1012.0 |
| 20260510093515 | 64 | 107 | 0.0 | 3.5 | 0.00 | 0.01 | 0.00 | 76 | 1011.9 |
| 20260510093053 | 64 | 107 | 0.9 | 1.7 | 0.00 | 0.01 | 0.00 | 76 | 1011.7 |
| 20260510092509 | 64 | 107 | 0.0 | 0.9 | 0.00 | 0.01 | 0.00 | 75 | 1011.6 |
| 20260510092031 | 64 | 107 | 0.0 | 0.0 | 0.00 | 0.01 | 0.00 | 75 | 1011.5 |
| 20260510091506 | 64 | 107 | 0.0 | 0.9 | 0.00 | 0.01 | 0.00 | 74 | 1011.1 |
| 20260510091025 | 64 | 107 | 0.0 | 1.7 | 0.00 | 0.01 | 0.00 | 74 | 1011.1 |
| 20260510090503 | 64 | 107 | 0.0 | 1.7 | 0.00 | 0.01 | 0.00 | 74 | 1011.0 |
| 20260510090026 | 64 | 107 | 0.0 | 0.9 | 0.00 | 0.01 | 0.00 | 74 | 1010.8 |
| 20260510085545 | 64 | 107 | 0.0 | 1.7 | 0.00 | 0.01 | 0.00 | 74 | 1010.6 |
| 20260510085021 | 65 | 107 | 0.0 | 1.7 | 0.00 | 0.01 | 0.00 | 74 | 1010.5 |
| 20260510084543 | 65 | 107 | 0.0 | 1.7 | 0.00 | 0.01 | 0.00 | 73 | 1010.5 |
| 20260510084021 | 65 | 107 | 0.0 | 4.3 | 0.00 | 0.01 | 0.00 | 72 | 1010.5 |
| 20260510083543 | 66 | 107 | 0.9 | 4.3 | 0.00 | 0.01 | 0.00 | 71 | 1010.4 |
| 20260510083024 | 66 | 109 | 0.9 | 4.3 | 0.00 | 0.01 | 0.00 | 70 | 1010.3 |
| 20260510082540 | 66 | 113 | 0.9 | 1.7 | 0.00 | 0.01 | 0.00 | 70 | 1010.4 |
| 20260510082017 | 67 | 114 | 0.0 | 0.0 | 0.00 | 0.01 | 0.00 | 69 | 1010.5 |
| 20260510081542 | 67 | 114 | 0.0 | 0.0 | 0.00 | 0.01 | 0.00 | 68 | 1010.4 |
| 20260510081019 | 67 | 114 | 0.0 | 0.0 | 0.00 | 0.01 | 0.00 | 66 | 1010.1 |
| 20260510080541 | 67 | 114 | 0.0 | 0.0 | 0.00 | 0.01 | 0.00 | 66 | 1010.1 |
| 20260510075539 | 67 | 114 | 0.0 | 0.9 | 0.00 | 0.01 | 0.00 | 68 | 1010.4 |
| 20260510075057 | 67 | 114 | 0.0 | 1.7 | 0.00 | 0.02 | 0.00 | 66 | 1010.0 |
| 20260510074524 | 66 | 114 | 0.0 | 1.7 | 0.00 | 0.02 | 0.00 | 67 | 1010.0 |
| 20260510074101 | 66 | 114 | 0.0 | 1.7 | 0.00 | 0.02 | 0.00 | 68 | 1009.8 |
| 20260510074003 | 66 | 114 | 0.0 | 1.7 | 0.00 | 0.02 | 0.00 | 69 | 1009.7 |
| 20260510073523 | 66 | 114 | 0.0 | 1.7 | 0.00 | 0.02 | 0.00 | 70 | 1009.9 |
| 20260510073109 | 66 | 114 | 0.0 | 3.5 | 0.00 | 0.02 | 0.00 | 70 | 1010.2 |
| 20260510073001 | 66 | 114 | 0.0 | 3.5 | 0.00 | 0.02 | 0.00 | 69 | 1010.1 |
| 20260510072517 | 67 | 115 | 0.0 | 0.9 | 0.00 | 0.02 | 0.00 | 70 | 1010.1 |
| 20260510072039 | 67 | 112 | 0.0 | 0.9 | 0.00 | 0.02 | 0.00 | 69 | 1010.1 |
| 20260510071559 | 67 | 112 | 0.0 | 0.9 | 0.00 | 0.02 | 0.00 | 69 | 1010.1 |
| 20260510071502 | 67 | 112 | 0.0 | 0.9 | 0.00 | 0.02 | 0.00 | 69 | 1010.0 |
| 20260510071041 | 67 | 112 | 0.0 | 1.7 | 0.00 | 0.02 | 0.00 | 69 | 1010.1 |
| 20260510070503 | 67 | 112 | 0.0 | 3.5 | 0.00 | 0.02 | 0.00 | 69 | 1010.0 |
| 20260510070031 | 67 | 112 | 0.9 | 2.6 | 0.00 | 0.02 | 0.00 | 69 | 1010.0 |
| 20260510065559 | 67 | 112 | 0.9 | 3.5 | 0.00 | 0.02 | 0.00 | 69 | 1009.7 |
| 20260510065504 | 67 | 112 | 0.0 | 3.5 | 0.00 | 0.02 | 0.00 | 69 | 1009.7 |
| 20260510065023 | 68 | 112 | 0.0 | 3.5 | 0.00 | 0.02 | 0.00 | 69 | 1009.7 |
| 20260510064558 | 68 | 112 | 0.0 | 4.3 | 0.00 | 0.02 | 0.00 | 69 | 1009.8 |
| 20260510064015 | 68 | 139 | 0.0 | 5.2 | 0.00 | 0.02 | 0.00 | 69 | 1009.9 |
| 20260510063539 | 67 | 141 | 1.7 | 6.1 | 0.00 | 0.02 | 0.00 | 69 | 1009.8 |
| 20260510063015 | 66 | 146 | 2.6 | 6.1 | 0.00 | 0.02 | 0.00 | 71 | 1010.1 |
| 20260510062537 | 66 | 96 | 0.9 | 4.3 | 0.00 | 0.02 | 0.00 | 75 | 1010.6 |
| 20260510062055 | 66 | 91 | 0.0 | 1.7 | 0.00 | 0.02 | 0.00 | 77 | 1010.8 |
| 20260510061536 | 66 | 91 | 0.0 | 1.7 | 0.00 | 0.02 | 0.00 | 78 | 1011.0 |
| 20260510061014 | 66 | 91 | 0.0 | 0.9 | 0.00 | 0.02 | 0.00 | 78 | 1011.4 |
| 20260510060534 | 66 | 91 | 0.0 | 0.9 | 0.00 | 0.02 | 0.00 | 77 | 1011.6 |
| 20260510060048 | 66 | 91 | 0.0 | 0.9 | 0.00 | 0.02 | 0.00 | 77 | 1011.9 |
| 20260510055535 | 66 | 91 | 0.0 | 0.9 | 0.00 | 0.02 | 0.00 | 76 | 1011.9 |
| 20260510055047 | 66 | 91 | 0.0 | 3.5 | 0.00 | 0.02 | 0.00 | 76 | 1012.0 |
| 20260510054513 | 66 | 91 | 0.9 | 2.6 | 0.00 | 0.02 | 0.00 | 75 | 1012.1 |
| 20260510054049 | 66 | 91 | 0.0 | 0.0 | 0.00 | 0.02 | 0.00 | 75 | 1012.1 |
| 20260510053514 | 66 | 91 | 0.0 | 0.0 | 0.00 | 0.02 | 0.00 | 75 | 1012.2 |
| 20260510053049 | 66 | 91 | 0.0 | 0.0 | 0.00 | 0.02 | 0.00 | 74 | 1012.2 |
| 20260510052507 | 66 | 91 | 0.0 | 0.0 | 0.00 | 0.02 | 0.00 | 72 | 1012.0 |
| 20260510052027 | 66 | 91 | 0.0 | 0.0 | 0.00 | 0.02 | 0.00 | 72 | 1012.1 |
| 20260510051559 | 66 | 91 | 0.0 | 0.0 | 0.00 | 0.02 | 0.00 | 73 | 1012.2 |
| 20260510051042 | 66 | 91 | 0.0 | 0.0 | 0.00 | 0.02 | 0.00 | 73 | 1012.1 |
| 20260510050519 | 67 | 91 | 0.0 | 0.0 | 0.00 | 0.02 | 0.00 | 72 | 1012.1 |
| 20260510050056 | 67 | 91 | 0.0 | 0.0 | 0.00 | 0.02 | 0.00 | 72 | 1012.1 |
| 20260510045519 | 67 | 91 | 0.0 | 0.9 | 0.00 | 0.02 | 0.00 | 72 | 1012.2 |
| 20260510045050 | 67 | 91 | 0.0 | 0.9 | 0.00 | 0.02 | 0.02 | 70 | 1012.1 |
| 20260510044516 | 68 | 91 | 0.0 | 0.9 | 0.00 | 0.02 | 0.02 | 69 | 1012.1 |
| 20260510044034 | 68 | 91 | 0.0 | 0.9 | 0.00 | 0.02 | 0.02 | 67 | 1012.1 |
| 20260510043555 | 68 | 91 | 0.0 | 0.9 | 0.00 | 0.02 | 0.02 | 67 | 1011.9 |
| 20260510043034 | 68 | 91 | 0.0 | 0.9 | 0.00 | 0.02 | 0.02 | 67 | 1011.6 |
| 20260510042550 | 69 | 91 | 0.0 | 1.7 | 0.00 | 0.02 | 0.02 | 65 | 1011.3 |
| 20260510042031 | 69 | 91 | 0.0 | 3.5 | 0.00 | 0.02 | 0.02 | 65 | 1011.1 |
| 20260510041551 | 69 | 91 | 0.0 | 3.5 | 0.00 | 0.02 | 0.02 | 65 | 1010.9 |
| 20260510041015 | 68 | 91 | 0.0 | 4.3 | 0.00 | 0.02 | 0.02 | 65 | 1010.7 |
| 20260510040548 | 68 | 91 | 0.9 | 4.3 | 0.00 | 0.02 | 0.02 | 66 | 1010.6 |
| 20260510040025 | 68 | 92 | 0.9 | 3.5 | 0.00 | 0.02 | 0.02 | 67 | 1010.6 |
| 20260510035547 | 69 | 92 | 0.0 | 2.6 | 0.00 | 0.02 | 0.02 | 68 | 1010.7 |
| 20260510035011 | 69 | 92 | 0.9 | 2.6 | 0.00 | 0.02 | 0.02 | 68 | 1010.7 |
| 20260510034549 | 69 | 92 | 0.0 | 0.9 | 0.00 | 0.02 | 0.02 | 66 | 1010.7 |
| 20260510034006 | 69 | 92 | 0.0 | 0.0 | 0.00 | 0.02 | 0.02 | 65 | 1010.5 |
| 20260510033528 | 69 | 92 | 0.0 | 0.0 | 0.00 | 0.02 | 0.02 | 64 | 1010.5 |
| 20260510033005 | 69 | 92 | 0.0 | 0.0 | 0.00 | 0.02 | 0.02 | 64 | 1010.4 |
| 20260510032533 | 69 | 92 | 0.0 | 0.0 | 0.00 | 0.02 | 0.02 | 64 | 1010.5 |
| 20260510032047 | 69 | 92 | 0.0 | 0.0 | 0.00 | 0.02 | 0.02 | 65 | 1010.6 |
| 20260510031531 | 69 | 92 | 0.0 | 0.0 | 0.00 | 0.02 | 0.02 | 65 | 1010.7 |
| 20260510031048 | 70 | 92 | 0.0 | 0.0 | 0.00 | 0.02 | 0.02 | 65 | 1010.8 |
| 20260510030513 | 70 | 92 | 0.0 | 0.0 | 0.00 | 0.02 | 0.02 | 63 | 1010.8 |
| 20260510030051 | 70 | 92 | 0.0 | 0.0 | 0.00 | 0.02 | 0.02 | 62 | 1010.7 |
| 20260510025515 | 70 | 92 | 0.0 | 0.0 | 0.00 | 0.02 | 0.02 | 61 | 1010.6 |
| 20260510025037 | 71 | 92 | 0.0 | 0.0 | 0.00 | 0.02 | 0.02 | 61 | 1010.4 |
| 20260510024514 | 71 | 92 | 0.0 | 0.0 | 0.00 | 0.02 | 0.02 | 61 | 1010.2 |
| 20260510024055 | 71 | 92 | 0.0 | 0.0 | 0.00 | 0.02 | 0.02 | 60 | 1010.0 |
| 20260510023537 | 71 | 92 | 0.0 | 0.0 | 0.00 | 0.02 | 0.02 | 59 | 1009.7 |
| 20260510023055 | 72 | 92 | 0.0 | 0.0 | 0.00 | 0.02 | 0.02 | 59 | 1009.4 |
| 20260510022539 | 72 | 92 | 0.0 | 0.0 | 0.00 | 0.02 | 0.02 | 58 | 1009.3 |
| 20260510022055 | 72 | 92 | 0.0 | 1.7 | 0.00 | 0.02 | 0.02 | 58 | 1009.2 |
| 20260510021524 | 72 | 92 | 0.0 | 1.7 | 0.00 | 0.02 | 0.02 | 57 | 1009.1 |
| 20260510021037 | 73 | 92 | 0.0 | 0.0 | 0.00 | 0.02 | 0.02 | 56 | 1009.0 |
| 20260510020517 | 73 | 92 | 0.0 | 0.0 | 0.00 | 0.02 | 0.02 | 56 | 1009.0 |
| 20260510020055 | 73 | 92 | 0.0 | 0.0 | 0.00 | 0.02 | 0.02 | 55 | 1008.9 |
| 20260510015510 | 73 | 92 | 0.0 | 0.0 | 0.00 | 0.02 | 0.02 | 54 | 1008.7 |
| 20260510015029 | 74 | 92 | 0.0 | 0.0 | 0.00 | 0.02 | 0.02 | 52 | 1008.7 |
| 20260510014508 | 74 | 92 | 0.0 | 0.0 | 0.00 | 0.02 | 0.02 | 52 | 1008.5 |
| 20260510014027 | 75 | 92 | 0.0 | 0.0 | 0.00 | 0.02 | 0.02 | 51 | 1008.4 |
| 20260510013549 | 75 | 92 | 0.0 | 0.0 | 0.00 | 0.02 | 0.02 | 51 | 1008.4 |
| 20260510013032 | 76 | 92 | 0.0 | 0.0 | 0.00 | 0.02 | 0.02 | 49 | 1008.3 |
| 20260510012549 | 76 | 92 | 0.0 | 0.0 | 0.00 | 0.02 | 0.02 | 49 | 1008.3 |
| 20260510012011 | 77 | 92 | 0.0 | 0.0 | 0.00 | 0.02 | 0.02 | 48 | 1008.1 |
| 20260510011549 | 77 | 92 | 0.0 | 0.0 | 0.00 | 0.02 | 0.02 | 47 | 1008.0 |
| 20260510011011 | 78 | 92 | 0.0 | 0.0 | 0.00 | 0.02 | 0.02 | 46 | 1007.9 |
| 20260510010530 | 78 | 92 | 0.0 | 1.7 | 0.00 | 0.02 | 0.02 | 45 | 1007.9 |
| 20260510010009 | 79 | 92 | 0.0 | 1.7 | 0.00 | 0.02 | 0.02 | 45 | 1007.8 |
| 20260510005531 | 79 | 92 | 0.0 | 0.9 | 0.00 | 0.02 | 0.02 | 44 | 1007.7 |
| 20260510005051 | 80 | 92 | 0.0 | 3.5 | 0.00 | 0.07 | 0.02 | 43 | 1007.7 |
| 20260510004535 | 80 | 92 | 0.0 | 3.5 | 0.00 | 0.07 | 0.02 | 43 | 1007.6 |
| 20260510004055 | 81 | 92 | 0.0 | 3.5 | 0.00 | 0.07 | 0.02 | 43 | 1007.6 |
| 20260510003517 | 81 | 91 | 0.0 | 2.6 | 0.00 | 0.07 | 0.02 | 43 | 1007.6 |
| 20260510003050 | 81 | 87 | 0.0 | 1.7 | 0.00 | 0.07 | 0.02 | 43 | 1007.6 |
| 20260510002517 | 81 | 87 | 0.0 | 1.7 | 0.00 | 0.07 | 0.02 | 43 | 1007.6 |
| 20260510002036 | 82 | 87 | 0.0 | 3.5 | 0.00 | 0.07 | 0.02 | 42 | 1007.5 |
| 20260510001555 | 82 | 79 | 0.0 | 3.5 | 0.00 | 0.07 | 0.02 | 41 | 1007.5 |
| 20260510001038 | 82 | 75 | 0.0 | 1.7 | 0.00 | 0.07 | 0.02 | 41 | 1007.6 |
| 20260510000553 | 82 | 75 | 0.0 | 4.3 | 0.00 | 0.07 | 0.02 | 41 | 1007.6 |
| 20260510000017 | 83 | 72 | 0.0 | 4.3 | 0.00 | 0.07 | 0.02 | 40 | 1007.6 |
| 20260509235553 | 83 | 186 | 0.0 | 3.5 | 0.00 | 0.07 | 0.02 | 39 | 1007.7 |
| 20260509235017 | 83 | 186 | 0.0 | 3.5 | 0.00 | 0.36 | 0.02 | 38 | 1007.7 |
| 20260509234611 | 83 | 186 | 0.9 | 3.5 | 0.00 | 0.36 | 0.02 | 38 | 1007.7 |
| 20260509234017 | 83 | 191 | 0.0 | 1.7 | 0.00 | 0.36 | 0.02 | 39 | 1007.7 |
| 20260509233601 | 83 | 191 | 0.0 | 1.7 | 0.00 | 0.36 | 0.02 | 37 | 1007.7 |
| 20260509233018 | 83 | 191 | 0.0 | 4.3 | 0.00 | 0.36 | 0.02 | 36 | 1007.8 |
| 20260509232559 | 83 | 191 | 0.0 | 4.3 | 0.00 | 0.36 | 0.02 | 37 | 1007.7 |
| 20260509232503 | 83 | 191 | 0.0 | 4.3 | 0.00 | 0.36 | 0.02 | 36 | 1007.7 |
| 20260509232022 | 83 | 127 | 0.9 | 2.6 | 0.00 | 0.36 | 0.02 | 36 | 1007.8 |
| 20260509231538 | 83 | 116 | 0.9 | 3.5 | 0.00 | 0.36 | 0.02 | 33 | 1007.8 |
| 20260509231014 | 83 | 101 | 0.0 | 3.5 | 0.00 | 0.36 | 0.02 | 32 | 1007.8 |
| 20260509230535 | 83 | 128 | 0.0 | 3.5 | 0.00 | 0.36 | 0.02 | 32 | 1007.8 |
| 20260509230056 | 83 | 125 | 0.0 | 4.3 | 0.00 | 0.36 | 0.02 | 32 | 1007.8 |
| 20260509225537 | 84 | 142 | 0.0 | 6.1 | 0.00 | 0.36 | 0.02 | 31 | 1007.9 |
| 20260509225054 | 84 | 187 | 0.0 | 6.1 | 0.00 | 0.36 | 0.02 | 34 | 1007.9 |
| 20260509224549 | 84 | 167 | 0.9 | 5.2 | 0.00 | 0.36 | 0.02 | 34 | 1007.9 |
| 20260509224102 | 84 | 152 | 1.7 | 5.2 | 0.00 | 0.36 | 0.02 | 34 | 1008.0 |
| 20260509224002 | 84 | 152 | 1.7 | 5.2 | 0.00 | 0.36 | 0.02 | 33 | 1008.0 |
| 20260509223545 | 84 | 160 | 0.9 | 4.3 | 0.00 | 0.36 | 0.02 | 33 | 1008.0 |
| 20260509223005 | 85 | 193 | 0.0 | 5.2 | 0.00 | 0.36 | 0.02 | 31 | 1008.0 |
| 20260509222526 | 85 | 194 | 0.0 | 5.2 | 0.00 | 0.36 | 0.02 | 33 | 1008.1 |
| 20260509222006 | 85 | 189 | 1.7 | 5.2 | 0.00 | 0.36 | 0.02 | 32 | 1008.1 |
| 20260509221541 | 85 | 180 | 2.6 | 4.3 | 0.00 | 0.36 | 0.02 | 32 | 1008.2 |
| 20260509221021 | 84 | 139 | 0.0 | 1.7 | 0.00 | 0.36 | 0.02 | 32 | 1008.2 |
| 20260509220600 | 85 | 139 | 0.0 | 4.3 | 0.00 | 0.36 | 0.02 | 31 | 1008.2 |
| 20260509220505 | 85 | 139 | 0.0 | 4.3 | 0.00 | 0.36 | 0.02 | 31 | 1008.2 |
| 20260509220018 | 85 | 139 | 0.0 | 4.3 | 0.00 | 0.36 | 0.02 | 34 | 1008.2 |
| 20260509215539 | 85 | 148 | 0.9 | 4.3 | 0.00 | 0.36 | 0.02 | 34 | 1008.2 |
| 20260509215019 | 85 | 150 | 0.9 | 6.1 | 0.00 | 0.36 | 0.02 | 34 | 1008.2 |
| 20260509214542 | 85 | 155 | 2.6 | 6.1 | 0.00 | 0.36 | 0.02 | 34 | 1008.2 |
| 20260509214101 | 85 | 164 | 1.7 | 6.1 | 0.00 | 0.36 | 0.02 | 34 | 1008.2 |
| 20260509213539 | 85 | 125 | 0.0 | 1.7 | 0.00 | 0.36 | 0.02 | 33 | 1008.3 |
| 20260509213057 | 85 | 126 | 0.0 | 2.6 | 0.00 | 0.36 | 0.02 | 33 | 1008.4 |
| 20260509212534 | 84 | 125 | 0.9 | 3.5 | 0.00 | 0.36 | 0.02 | 33 | 1008.5 |
| 20260509212010 | 84 | 125 | 0.9 | 3.5 | 0.00 | 0.36 | 0.02 | 33 | 1008.6 |
| 20260509211531 | 84 | 123 | 0.0 | 3.5 | 0.00 | 0.36 | 0.02 | 31 | 1008.6 |
| 20260509211049 | 84 | 126 | 0.0 | 4.3 | 0.00 | 0.36 | 0.02 | 31 | 1008.7 |
| 20260509210525 | 85 | 149 | 0.0 | 5.2 | 0.00 | 0.36 | 0.02 | 32 | 1008.8 |
| 20260509210054 | 85 | 193 | 0.9 | 5.2 | 0.00 | 0.36 | 0.02 | 33 | 1008.9 |
| 20260509205522 | 84 | 199 | 0.0 | 4.3 | 0.00 | 0.36 | 0.02 | 36 | 1008.8 |
| 20260509205039 | 84 | 203 | 0.9 | 4.3 | 0.00 | 0.36 | 0.02 | 34 | 1008.9 |
| 20260509204606 | 84 | 194 | 0.0 | 6.1 | 0.00 | 0.36 | 0.02 | 33 | 1008.9 |
| 20260509204038 | 84 | 193 | 4.3 | 6.1 | 0.00 | 0.36 | 0.02 | 33 | 1008.9 |
| 20260509203555 | 83 | 131 | 0.0 | 3.5 | 0.00 | 0.36 | 0.02 | 32 | 1009.0 |
| 20260509203051 | 83 | 130 | 0.9 | 4.3 | 0.00 | 0.36 | 0.02 | 33 | 1009.1 |
| 20260509202552 | 83 | 135 | 1.7 | 4.3 | 0.00 | 0.36 | 0.02 | 35 | 1009.1 |
| 20260509202013 | 83 | 83 | 0.0 | 1.7 | 0.00 | 0.36 | 0.02 | 36 | 1009.2 |
| 20260509201531 | 83 | 82 | 0.0 | 3.5 | 0.00 | 0.36 | 0.02 | 37 | 1009.3 |
| 20260509201012 | 83 | 81 | 0.0 | 4.3 | 0.00 | 0.36 | 0.02 | 36 | 1009.3 |
| 20260509200532 | 83 | 114 | 0.9 | 3.5 | 0.00 | 0.36 | 0.02 | 30 | 1009.4 |
| 20260509200010 | 83 | 120 | 0.0 | 4.3 | 0.00 | 0.36 | 0.02 | 31 | 1009.5 |
| 20260509195534 | 83 | 127 | 0.0 | 4.3 | 0.00 | 0.36 | 0.02 | 32 | 1009.6 |
| 20260509195052 | 83 | 164 | 0.0 | 4.3 | 0.00 | 0.36 | 0.02 | 33 | 1009.6 |
| 20260509194533 | 83 | 165 | 0.9 | 4.3 | 0.00 | 0.36 | 0.02 | 35 | 1009.6 |
| 20260509194058 | 83 | 163 | 0.9 | 4.3 | 0.00 | 0.36 | 0.02 | 35 | 1009.7 |
| 20260509193534 | 83 | 156 | 0.9 | 5.2 | 0.00 | 0.36 | 0.02 | 38 | 1009.7 |
| 20260509193016 | 82 | 208 | 0.9 | 6.1 | 0.00 | 0.36 | 0.02 | 36 | 1009.7 |
| 20260509192548 | 82 | 177 | 1.7 | 6.1 | 0.00 | 0.36 | 0.02 | 38 | 1009.6 |
| 20260509192025 | 82 | 133 | 0.9 | 5.2 | 0.00 | 0.36 | 0.02 | 36 | 1009.6 |
| 20260509191503 | 81 | 155 | 0.9 | 5.2 | 0.00 | 0.36 | 0.02 | 41 | 1009.6 |
| 20260509191038 | 81 | 188 | 0.9 | 5.2 | 0.00 | 0.36 | 0.02 | 44 | 1009.6 |
| 20260509190552 | 81 | 184 | 0.9 | 7.8 | 0.00 | 0.36 | 0.02 | 44 | 1009.6 |
| 20260509190034 | 80 | 200 | 3.5 | 7.8 | 0.00 | 0.36 | 0.02 | 41 | 1009.6 |
| 20260509185552 | 80 | 192 | 3.5 | 7.0 | 0.00 | 0.36 | 0.02 | 41 | 1009.8 |
| 20260509185018 | 80 | 205 | 4.3 | 7.0 | 0.00 | 0.36 | 0.02 | 45 | 1009.8 |
| 20260509184552 | 81 | 214 | 3.5 | 7.0 | 0.00 | 0.36 | 0.02 | 45 | 1009.9 |
| 20260509184016 | 80 | 171 | 0.9 | 4.3 | 0.00 | 0.36 | 0.02 | 44 | 1009.9 |
| 20260509183551 | 80 | 211 | 0.0 | 6.1 | 0.00 | 0.36 | 0.02 | 47 | 1010.0 |
| 20260509183011 | 80 | 194 | 1.7 | 6.1 | 0.00 | 0.36 | 0.02 | 47 | 1010.1 |
| 20260509182530 | 79 | 193 | 1.7 | 7.0 | 0.00 | 0.36 | 0.02 | 46 | 1010.1 |
| 20260509182008 | 79 | 190 | 1.7 | 7.0 | 0.00 | 0.36 | 0.02 | 49 | 1010.2 |
| 20260509181526 | 79 | 237 | 0.0 | 6.1 | 0.00 | 0.36 | 0.02 | 50 | 1010.2 |
| 20260509181007 | 78 | 229 | 1.7 | 6.1 | 0.00 | 0.36 | 0.02 | 52 | 1010.3 |
| 20260509180526 | 78 | 191 | 0.9 | 6.1 | 0.00 | 0.36 | 0.02 | 53 | 1010.3 |
| 20260509180116 | 78 | 200 | 0.0 | 6.1 | 0.00 | 0.36 | 0.02 | 55 | 1010.4 |
| 20260509180002 | 78 | 200 | 1.7 | 6.1 | 0.00 | 0.36 | 0.02 | 55 | 1010.4 |
| 20260509175522 | 77 | 200 | 1.7 | 6.1 | 0.00 | 0.36 | 0.02 | 57 | 1010.3 |
| 20260509175044 | 77 | 226 | 2.6 | 6.1 | 0.00 | 0.36 | 0.02 | 60 | 1010.3 |
| 20260509174527 | 77 | 141 | 0.9 | 5.2 | 0.00 | 0.36 | 0.02 | 60 | 1010.3 |
| 20260509174044 | 76 | 186 | 0.9 | 4.3 | 0.00 | 0.36 | 0.02 | 64 | 1010.3 |
| 20260509173521 | 76 | 186 | 0.0 | 7.0 | 0.00 | 0.36 | 0.02 | 64 | 1010.4 |
| 20260509173049 | 75 | 185 | 0.0 | 7.0 | 0.00 | 0.36 | 0.02 | 65 | 1010.5 |
| 20260509172559 | 75 | 188 | 3.5 | 7.0 | 0.00 | 0.36 | 0.02 | 65 | 1010.6 |
| 20260509172040 | 74 | 196 | 1.7 | 6.1 | 0.00 | 0.36 | 0.02 | 68 | 1010.6 |
| 20260509171557 | 74 | 197 | 0.9 | 6.1 | 0.00 | 0.36 | 0.02 | 67 | 1010.6 |
| 20260509171022 | 74 | 199 | 1.7 | 5.2 | 0.00 | 0.36 | 0.02 | 66 | 1010.7 |
| 20260509170554 | 73 | 200 | 3.5 | 7.0 | 0.00 | 0.36 | 0.02 | 69 | 1010.7 |
| 20260509170033 | 73 | 194 | 4.3 | 7.0 | 0.00 | 0.36 | 0.02 | 70 | 1010.7 |
| 20260509165552 | 72 | 206 | 0.9 | 7.0 | 0.00 | 0.36 | 0.02 | 75 | 1010.8 |
| 20260509165014 | 72 | 199 | 1.7 | 7.0 | 0.00 | 0.36 | 0.02 | 73 | 1010.9 |
| 20260509164548 | 72 | 204 | 0.9 | 7.0 | 0.00 | 0.36 | 0.02 | 78 | 1010.9 |
| 20260509164012 | 71 | 206 | 1.7 | 7.0 | 0.00 | 0.36 | 0.02 | 77 | 1010.9 |
| 20260509163549 | 71 | 200 | 1.7 | 6.1 | 0.00 | 0.36 | 0.02 | 80 | 1010.9 |
| 20260509163010 | 70 | 205 | 0.9 | 6.1 | 0.00 | 0.36 | 0.02 | 80 | 1010.9 |
| 20260509162532 | 70 | 213 | 3.5 | 6.1 | 0.00 | 0.36 | 0.02 | 79 | 1010.9 |
| 20260509162008 | 70 | 212 | 3.5 | 5.2 | 0.00 | 0.36 | 0.02 | 81 | 1010.7 |
| 20260509161527 | 70 | 202 | 0.0 | 5.2 | 0.00 | 0.36 | 0.02 | 84 | 1010.7 |
| 20260509161100 | 69 | 203 | 0.0 | 5.2 | 0.00 | 0.36 | 0.02 | 84 | 1010.6 |
| 20260509161002 | 69 | 205 | 0.9 | 5.2 | 0.00 | 0.36 | 0.02 | 85 | 1010.7 |
| 20260509160524 | 68 | 214 | 1.7 | 4.3 | 0.00 | 0.36 | 0.02 | 86 | 1010.7 |
| 20260509160059 | 68 | 216 | 1.7 | 4.3 | 0.00 | 0.36 | 0.02 | 87 | 1010.6 |
| 20260509155538 | 67 | 200 | 0.0 | 4.3 | 0.00 | 0.36 | 0.02 | 90 | 1010.6 |
| 20260509155055 | 66 | 200 | 1.7 | 6.1 | 0.00 | 0.36 | 0.02 | 89 | 1010.6 |
| 20260509154536 | 66 | 200 | 0.9 | 6.1 | 0.00 | 0.36 | 0.02 | 92 | 1010.6 |
| 20260509154051 | 65 | 195 | 2.6 | 6.1 | 0.00 | 0.36 | 0.02 | 93 | 1010.6 |
| 20260509153538 | 64 | 218 | 1.7 | 5.2 | 0.00 | 0.36 | 0.02 | 93 | 1010.7 |
| 20260509153108 | 64 | 195 | 0.9 | 5.2 | 0.00 | 0.36 | 0.02 | 94 | 1010.7 |
| 20260509152516 | 64 | 206 | 0.9 | 4.3 | 0.00 | 0.36 | 0.02 | 95 | 1010.7 |
| 20260509152055 | 63 | 206 | 0.9 | 4.3 | 0.01 | 0.36 | 0.02 | 95 | 1010.8 |
| 20260509151516 | 63 | 206 | 1.7 | 4.3 | 0.01 | 0.36 | 0.02 | 95 | 1010.7 |
| 20260509151052 | 62 | 207 | 0.9 | 5.2 | 0.01 | 0.36 | 0.02 | 95 | 1010.7 |
| 20260509150522 | 62 | 208 | 2.6 | 5.2 | 0.01 | 0.36 | 0.02 | 95 | 1010.7 |
| 20260509150054 | 62 | 210 | 0.0 | 5.2 | 0.01 | 0.36 | 0.02 | 95 | 1010.7 |
| 20260509145518 | 61 | 210 | 2.6 | 6.1 | 0.01 | 0.36 | 0.02 | 95 | 1010.8 |
| 20260509145054 | 61 | 191 | 2.6 | 6.1 | 0.01 | 0.36 | 0.02 | 95 | 1010.9 |
| 20260509144536 | 61 | 210 | 1.7 | 4.3 | 0.01 | 0.36 | 0.02 | 95 | 1010.9 |
| 20260509144013 | 61 | 208 | 1.7 | 4.3 | 0.01 | 0.36 | 0.02 | 95 | 1010.8 |
| 20260509143551 | 61 | 208 | 1.7 | 4.3 | 0.01 | 0.36 | 0.02 | 95 | 1010.8 |
| 20260509143030 | 60 | 195 | 0.9 | 4.3 | 0.01 | 0.36 | 0.02 | 95 | 1010.7 |
| 20260509142507 | 60 | 195 | 0.0 | 4.3 | 0.01 | 0.36 | 0.02 | 95 | 1010.7 |
| 20260509142040 | 60 | 264 | 0.0 | 2.6 | 0.00 | 0.35 | 0.01 | 95 | 1010.7 |
| 20260509141535 | 60 | 265 | 0.0 | 0.9 | 0.00 | 0.35 | 0.01 | 95 | 1010.6 |
| 20260509141038 | 60 | 265 | 0.0 | 0.9 | 0.00 | 0.35 | 0.01 | 95 | 1010.4 |
| 20260509140519 | 59 | 265 | 0.0 | 0.9 | 0.00 | 0.35 | 0.01 | 95 | 1010.3 |
| 20260509140053 | 59 | 265 | 0.0 | 0.9 | 0.00 | 0.35 | 0.01 | 95 | 1010.2 |
| 20260509135536 | 58 | 265 | 0.0 | 0.9 | 0.00 | 0.35 | 0.01 | 95 | 1010.2 |
| 20260509135012 | 57 | 265 | 0.0 | 0.9 | 0.00 | 0.35 | 0.01 | 95 | 1010.3 |
| 20260509134546 | 57 | 265 | 0.0 | 3.5 | 0.00 | 0.35 | 0.01 | 95 | 1010.4 |
| 20260509134029 | 57 | 265 | 0.0 | 3.5 | 0.00 | 0.35 | 0.01 | 95 | 1010.3 |
| 20260509133506 | 56 | 265 | 0.0 | 0.0 | 0.00 | 0.35 | 0.01 | 95 | 1010.3 |
| 20260509133057 | 56 | 265 | 0.0 | 0.0 | 0.00 | 0.35 | 0.01 | 95 | 1010.3 |
| 20260509132527 | 56 | 265 | 0.0 | 0.0 | 0.00 | 0.35 | 0.01 | 95 | 1010.2 |
| 20260509132003 | 55 | 265 | 0.0 | 0.0 | 0.00 | 0.35 | 0.01 | 95 | 1010.1 |
| 20260509131544 | 55 | 265 | 0.0 | 0.0 | 0.00 | 0.35 | 0.01 | 95 | 1010.0 |
| 20260509131028 | 55 | 265 | 0.0 | 0.0 | 0.00 | 0.35 | 0.01 | 95 | 1010.0 |